Wind_Speed
66 64 62 61 62 64 66 68 68 69 67 61 55 49 45 43 41 38 37 35 34 34 36 41 47 52 59 65 67 65 64 62 63 70 83 92 97 97 93 92 89 82 77
65 64 63 63 65 67 68 70 72 71 65 56 47 39 33 32 34 35 34 32 30 30 32 36 42 47 53 60 64 65 63 62 60 63 73 84 92 94 92 90 89 87 81
65 64 64 65 66 68 70 73 74 68 60 49 38 28 19 15 18 24 27 28 27 27 28 32 37 42 47 54 60 63 61 61 59 59 65 76 84 88 89 87 85 86 84
65 64 65 65 67 70 73 75 73 66 55 42 32 23 15 7 5 11 17 22 23 23 25 28 33 38 42 48 54 59 59 58 57 56 61 69 76 81 85 85 81 82 82
64 64 65 66 69 71 74 75 71 63 51 39 29 22 16 10 4 4 9 15 18 20 22 25 29 33 37 42 48 53 55 55 55 54 58 66 72 78 81 82 82 81 81
63 64 65 67 69 71 74 75 71 62 50 36 26 20 16 12 7 2 5 9 13 16 19 23 26 30 33 37 42 47 49 50 51 52 55 63 71 76 79 81 81 81 81
62 63 65 67 69 71 73 74 71 63 52 38 26 19 14 9 5 2 2 5 8 13 17 21 25 28 30 34 37 41 44 46 48 48 50 58 68 74 79 80 80 79 79
61 62 64 66 68 70 72 73 72 65 55 44 32 23 16 11 7 5 2 2 6 11 15 20 24 27 29 32 34 37 39 41 43 44 45 51 61 71 79 83 82 79 77
60 61 63 65 66 68 70 71 71 67 59 50 39 29 22 16 11 8 5 2 5 9 14 19 23 27 29 31 33 34 35 36 38 40 41 45 53 65 77 82 84 82 77
58 60 61 63 65 67 69 70 70 69 64 56 47 36 27 20 15 11 7 3 3 8 13 18 23 27 29 31 32 32 32 33 33 35 37 40 46 55 69 79 83 83 79
57 58 60 61 63 66 68 69 69 68 66 61 53 45 35 26 19 14 10 5 2 6 12 17 22 26 29 30 31 31 30 30 30 30 33 37 41 47 59 71 79 81 79
55 56 58 59 61 63 65 66 66 66 65 63 58 52 44 34 25 18 13 8 3 4 9 15 21 26 29 30 30 30 30 28 27 28 30 33 37 43 51 60 70 75 75
53 54 55 57 59 60 62 63 64 64 63 62 60 56 50 44 35 25 18 11 6 1 7 14 19 25 28 30 31 30 30 28 27 26 27 30 34 39 46 54 60 67 69
51 51 53 54 56 57 59 60 61 61 62 61 60 59 55 50 43 35 26 18 10 3 4 11 17 23 28 30 31 31 30 29 28 27 27 28 31 35 41 48 55 61 64
49 49 50 52 54 56 57 58 59 60 60 60 60 58 57 54 50 44 36 27 17 9 1 7 14 20 26 30 31 31 31 30 29 28 27 28 30 31 37 45 51 56 59
48 48 49 50 51 53 55 56 57 58 59 59 59 58 57 55 53 49 43 36 27 17 7 3 10 17 23 28 31 32 32 32 31 30 29 30 30 30 32 39 46 52 56
47 47 48 49 50 51 52 53 54 55 56 56 56 56 56 54 53 51 48 43 36 27 17 5 5 12 19 25 30 33 33 33 33 32 32 32 32 32 32 35 41 46 51
46 46 47 48 49 50 51 51 52 52 53 53 54 53 53 53 52 50 49 46 42 35 27 17 5 6 15 21 27 32 34 35 35 35 34 34 34 34 34 35 39 43 47
45 45 46 47 48 49 49 50 50 50 51 51 51 51 51 50 50 49 48 46 44 40 34 27 17 5 7 16 23 29 33 36 36 36 37 37 37 36 36 37 39 42 45
44 44 45 46 47 47 48 48 48 48 49 49 48 48 48 47 47 47 46 45 43 41 38 33 26 17 6 7 16 24 30 35 38 38 39 39 39 39 39 39 40 42 45
44 44 44 45 46 46 47 47 47 47 47 47 47 47 47 46 46 45 44 43 42 40 38 36 32 26 17 7 7 16 25 32 37 40 41 42 42 42 42 42 42 43 44
43 43 44 44 45 45 46 46 46 45 45 45 44 44 45 45 44 43 43 42 41 39 38 36 33 30 24 16 8 6 16 25 33 39 42 44 45 45 45 45 45 45 46
43 43 43 43 44 44 45 45 44 44 43 43 43 42 42 42 42 42 41 41 40 39 37 35 33 30 28 23 16 9 7 16 26 35 41 45 46 48 48 48 48 48 48
42 42 42 43 43 43 44 43 43 42 41 41 41 41 40 40 41 40 40 40 39 38 37 36 34 31 28 25 21 15 9 8 16 27 36 43 47 50 51 51 51 51 50
41 42 42 42 42 42 43 43 42 42 40 39 39 39 39 39 39 39 39 38 38 38 37 36 35 33 30 26 23 19 14 9 9 17 27 37 44 50 53 54 54 54 54
40 41 41 41 42 42 42 42 41 41 40 38 38 38 38 37 38 38 38 37 37 37 36 36 35 34 32 29 25 21 17 13 10 11 18 28 37 45 51 55 57 57 57
Wind_Direction
342 342 342 342 341 340 338 335 332 328 323 317 309 300 288 277 269 264 261 257 253 248 242 235 229 225 222 220 219 219 218 217 218 221 220 218 216 215 216 217 217 217 218
345 345 346 345 345 343 342 340 337 334 331 327 321 313 299 279 264 257 254 251 248 244 239 233 228 224 221 219 218 218 218 217 216 218 220 218 216 215 215 216 217 218 218
348 349 349 349 348 347 347 346 344 342 341 340 340 338 326 296 261 249 246 244 242 238 235 230 225 221 219 218 216 216 216 216 215 216 218 218 216 215 214 215 216 218 219
351 351 352 352 352 352 352 352 351 351 352 356 1 8 10 359 264 242 238 237 234 231 229 225 220 218 217 215 214 214 215 215 215 216 216 215 214 213 212 211 212 215 216
354 354 355 355 356 357 357 358 358 359 1 7 18 30 44 60 81 207 231 229 225 224 221 218 215 213 213 212 211 212 212 213 214 215 214 213 211 209 208 208 210 211 213
356 356 358 359 360 1 2 3 4 5 7 12 26 40 54 66 66 78 232 223 218 216 213 210 209 208 207 207 207 208 209 211 212 213 213 212 211 209 206 205 207 209 211
358 359 0 2 3 4 6 8 9 10 11 14 21 32 46 62 63 39 235 211 208 207 206 204 202 201 201 201 202 204 206 208 210 211 213 212 211 209 206 204 204 206 209
360 1 3 4 6 7 9 11 13 15 15 17 18 22 29 31 22 4 346 225 209 204 200 198 196 195 194 195 197 199 202 205 207 210 212 213 212 209 208 205 203 203 205
2 4 5 6 8 10 12 14 16 18 19 20 21 22 24 24 22 17 4 283 216 203 196 194 192 190 190 190 193 195 198 202 205 208 211 212 212 211 208 207 206 204 204
3 6 7 8 9 11 14 16 18 20 22 23 23 22 23 24 24 22 14 340 226 202 197 194 191 189 188 189 190 192 195 198 203 207 210 211 210 210 209 207 207 206 206
5 8 9 9 11 13 15 18 19 21 23 24 25 24 24 22 21 20 17 3 283 207 199 194 191 189 188 189 189 190 192 195 200 204 206 207 206 206 206 206 206 207 207
5 8 10 11 12 14 16 18 20 22 23 25 26 27 26 25 22 19 16 10 349 217 203 197 193 191 190 190 189 190 191 194 196 199 202 203 204 203 202 204 205 206 208
6 8 10 12 13 15 17 19 21 22 24 26 27 28 28 28 26 23 19 13 4 265 207 201 196 194 193 192 192 191 192 193 194 197 199 199 201 202 201 200 201 204 206
6 8 9 11 13 15 17 19 20 22 24 26 27 28 29 29 29 28 24 20 13 354 217 205 200 198 197 196 195 194 194 193 193 193 195 196 197 200 201 198 198 199 202
6 8 9 11 12 14 16 18 19 21 23 25 27 28 29 30 30 30 29 27 22 15 303 211 205 203 201 200 199 198 196 195 194 193 192 191 192 195 198 197 196 196 198
6 8 10 11 12 14 15 16 18 20 22 23 25 26 27 29 30 30 30 29 28 26 18 228 211 208 206 205 204 203 201 198 197 195 192 190 190 190 192 195 196 197 196
5 7 9 11 12 14 15 16 16 18 20 22 23 25 26 27 28 29 30 31 30 30 27 17 224 214 211 210 208 207 205 203 200 198 195 193 191 190 190 191 194 196 197
3 6 8 9 11 13 14 15 16 17 18 19 21 23 24 25 27 28 29 30 30 30 30 28 14 226 217 215 213 211 209 207 205 202 199 196 194 193 191 190 192 193 195
1 4 5 7 9 11 12 13 14 15 16 17 19 20 22 23 25 26 27 29 29 30 30 30 27 11 231 221 218 215 213 211 209 207 204 202 199 197 195 192 191 192 193
359 1 3 5 6 8 10 10 11 12 13 15 16 18 20 21 23 24 25 26 28 28 29 29 28 26 8 238 225 220 217 215 213 211 208 205 203 200 198 196 194 193 193
358 359 0 2 3 5 7 8 9 10 11 11 13 14 16 18 20 21 23 24 25 26 27 27 27 27 24 7 247 228 222 219 217 214 212 210 207 204 201 200 198 196 196
357 357 358 359 0 2 3 5 6 7 8 9 10 11 13 15 17 18 19 21 23 24 24 24 24 25 23 20 3 257 230 224 220 218 216 213 211 209 207 204 203 202 201
356 356 356 357 358 359 1 2 3 4 6 7 8 9 11 12 14 15 16 17 19 21 21 21 21 20 20 19 12 353 268 233 225 221 219 217 215 213 211 210 208 206 205
354 355 355 355 356 357 358 359 1 2 4 5 6 7 8 10 11 12 13 14 15 17 18 18 17 16 15 14 11 3 341 271 235 225 221 219 218 216 215 213 212 211 209
353 354 354 354 354 355 357 358 359 0 2 3 4 6 7 7 9 10 11 11 12 13 14 14 14 13 11 8 5 0 351 327 270 237 226 222 220 218 217 216 215 214 213
352 352 352 353 353 354 355 356 357 359 0 1 3 4 5 6 7 8 8 9 10 10 11 11 11 10 8 5 2 357 349 335 310 265 237 226 221 219 218 217 217 216 215
Height
5517 5501 5486 5471 5456 5440 5423 5406 5388 5369 5350 5333 5321 5312 5308 5308 5310 5313 5316 5321 5325 5329 5334 5339 5347 5355 5366 5378 5392 5405 5419 5431 5443 5453 5466 5482 5500 5519 5536 5552 5568 5582 5595
5512 5496 5480 5464 5449 5432 5414 5394 5373 5351 5330 5312 5299 5290 5286 5286 5290 5296 5302 5308 5314 5318 5323 5328 5335 5343 5353 5365 5378 5392 5406 5419 5432 5441 5451 5467 5485 5504 5521 5537 5553 5567 5581
5507 5491 5475 5459 5443 5425 5406 5384 5360 5337 5316 5299 5286 5278 5274 5274 5277 5283 5291 5297 5303 5309 5314 5319 5325 5334 5343 5354 5366 5380 5394 5407 5420 5430 5439 5453 5471 5489 5506 5523 5538 5552 5567
5503 5487 5472 5456 5438 5419 5398 5375 5351 5329 5310 5294 5283 5276 5272 5272 5274 5278 5284 5290 5296 5302 5306 5312 5318 5326 5335 5345 5357 5370 5383 5396 5409 5419 5429 5441 5458 5474 5491 5508 5524 5538 5553
5501 5485 5469 5452 5434 5415 5394 5372 5348 5326 5308 5295 5285 5279 5275 5275 5276 5278 5282 5286 5291 5297 5302 5307 5313 5320 5328 5338 5349 5361 5374 5386 5398 5408 5417 5429 5443 5459 5477 5493 5509 5523 5538
5499 5484 5467 5450 5433 5414 5393 5371 5349 5329 5312 5299 5290 5284 5281 5280 5280 5281 5283 5286 5290 5294 5299 5304 5310 5317 5324 5333 5343 5354 5366 5377 5388 5397 5407 5417 5430 5445 5462 5478 5495 5509 5526
5499 5483 5467 5450 5433 5414 5395 5374 5353 5334 5318 5305 5297 5291 5287 5285 5284 5285 5285 5288 5290 5293 5297 5302 5307 5314 5321 5329 5339 5349 5359 5369 5380 5389 5398 5407 5418 5432 5451 5467 5482 5497 5514
5500 5484 5468 5452 5435 5418 5399 5380 5360 5341 5325 5313 5304 5298 5294 5291 5290 5289 5289 5290 5292 5294 5297 5301 5306 5312 5319 5327 5335 5345 5354 5364 5373 5382 5390 5399 5408 5420 5436 5453 5468 5486 5502
5501 5486 5470 5455 5439 5422 5405 5386 5368 5350 5334 5322 5311 5304 5300 5297 5294 5293 5292 5292 5293 5295 5298 5301 5306 5312 5318 5325 5334 5342 5351 5359 5367 5375 5383 5391 5399 5410 5423 5439 5455 5473 5488
5503 5488 5473 5458 5442 5426 5410 5392 5375 5359 5344 5331 5320 5312 5306 5301 5298 5296 5295 5294 5295 5296 5299 5302 5307 5312 5318 5325 5332 5340 5348 5356 5363 5371 5377 5384 5392 5401 5412 5426 5442 5460 5476
5503 5489 5476 5462 5447 5431 5415 5399 5383 5368 5354 5341 5329 5320 5312 5307 5303 5300 5298 5297 5297 5298 5300 5303 5307 5312 5318 5324 5331 5339 5346 5353 5360 5367 5373 5380 5386 5394 5404 5416 5432 5448 5464
5505 5492 5479 5466 5452 5437 5423 5408 5394 5379 5366 5353 5340 5329 5320 5313 5308 5304 5301 5299 5298 5299 5301 5304 5307 5312 5318 5324 5331 5337 5344 5351 5358 5364 5370 5376 5382 5389 5398 5409 5423 5438 5453
5507 5495 5483 5471 5458 5445 5431 5418 5404 5391 5378 5364 5351 5340 5330 5321 5314 5308 5305 5302 5301 5301 5302 5304 5308 5312 5318 5324 5330 5337 5343 5350 5356 5362 5367 5373 5379 5386 5394 5404 5416 5430 5445
5510 5498 5487 5475 5463 5451 5439 5426 5414 5401 5388 5375 5362 5351 5340 5330 5322 5315 5309 5305 5303 5303 5303 5305 5308 5312 5318 5323 5330 5336 5342 5348 5354 5360 5365 5371 5377 5383 5390 5399 5411 5423 5437
5512 5502 5490 5479 5467 5456 5444 5433 5420 5408 5396 5384 5372 5361 5351 5341 5331 5322 5316 5310 5306 5305 5305 5306 5309 5312 5317 5322 5328 5335 5341 5347 5352 5358 5364 5369 5375 5381 5388 5396 5405 5416 5429
5515 5505 5494 5483 5472 5460 5448 5437 5426 5415 5403 5392 5381 5370 5359 5349 5339 5331 5323 5316 5311 5308 5307 5307 5309 5312 5316 5321 5326 5332 5339 5345 5351 5356 5362 5368 5373 5379 5385 5392 5401 5411 5422
5517 5507 5497 5486 5476 5465 5454 5443 5432 5421 5410 5400 5390 5379 5369 5359 5350 5341 5332 5325 5318 5314 5310 5309 5309 5311 5314 5319 5324 5330 5336 5342 5348 5354 5360 5366 5372 5378 5384 5390 5398 5406 5416
5518 5508 5499 5489 5479 5469 5459 5448 5438 5428 5418 5408 5398 5388 5378 5368 5359 5350 5341 5334 5327 5320 5315 5312 5311 5311 5313 5317 5321 5327 5332 5339 5345 5351 5358 5364 5370 5376 5382 5388 5395 5402 5411
5520 5510 5501 5491 5482 5472 5462 5453 5443 5434 5424 5414 5405 5395 5386 5377 5368 5359 5350 5342 5335 5328 5322 5317 5314 5312 5313 5315 5318 5323 5328 5334 5341 5347 5354 5360 5367 5373 5380 5386 5393 5400 5407
5521 5512 5503 5494 5484 5475 5466 5457 5447 5438 5429 5420 5411 5402 5393 5384 5375 5367 5358 5350 5342 5336 5329 5323 5318 5315 5314 5314 5316 5319 5323 5329 5335 5342 5348 5355 5362 5369 5376 5382 5389 5396 5404
5521 5512 5503 5495 5486 5477 5468 5459 5450 5441 5432 5423 5415 5406 5397 5389 5381 5373 5365 5357 5349 5342 5335 5329 5324 5319 5316 5314 5314 5315 5318 5323 5329 5335 5342 5349 5356 5363 5370 5377 5384 5392 5399
5521 5513 5504 5496 5488 5479 5470 5461 5452 5444 5435 5427 5418 5410 5402 5393 5386 5378 5370 5362 5355 5347 5341 5335 5329 5323 5319 5315 5313 5313 5314 5317 5321 5327 5334 5341 5348 5355 5363 5371 5378 5386 5393
5521 5512 5504 5496 5488 5480 5471 5463 5454 5446 5438 5429 5421 5413 5405 5397 5389 5382 5374 5366 5359 5352 5345 5339 5333 5327 5322 5318 5314 5312 5311 5312 5314 5319 5325 5331 5339 5346 5354 5362 5370 5378 5385
5520 5512 5504 5496 5488 5480 5472 5464 5456 5447 5439 5431 5423 5415 5408 5400 5392 5385 5377 5370 5362 5355 5348 5342 5335 5330 5324 5319 5315 5311 5309 5308 5308 5311 5315 5321 5328 5335 5343 5352 5360 5368 5376
5520 5512 5504 5496 5488 5480 5472 5464 5456 5448 5440 5432 5425 5417 5409 5402 5394 5387 5379 5372 5365 5358 5351 5344 5337 5331 5325 5319 5315 5310 5307 5304 5303 5303 5306 5310 5316 5323 5331 5339 5348 5357 5366
5519 5511 5504 5496 5488 5480 5472 5464 5456 5448 5440 5432 5425 5418 5411 5403 5396 5389 5381 5374 5367 5359 5352 5345 5338 5331 5325 5319 5313 5308 5304 5300 5298 5297 5297 5300 5304 5310 5317 5326 5335 5344 5353